This demonstration page uses our WeatherBlox Daily Observations layout. Learn more.

Hourly Observations for January 27, 2019

Temp ( °F °C ) Dew Point ( °F °C ) Humidity (%) Winds ( mph kmh ) Pressure ( in mb ) Visibility ( mi km ) Precip ( " mm )
12:15 am 00:15 Clear 27 -3 21 -6 80 80 Calm 30.21 1023 10 16.09344 0 0
12:35 am 00:35 Clear 27 -3 23 -5 86 86 Calm 30.18 1022 10 16.09344 0 0
12:55 am 00:55 Clear 27 -3 23 -5 86 86 Calm 30.18 1022 10 16.09344 0 0
1:15 am 01:15 Clear 27 -3 23 -5 86 86 Calm 30.18 1022 10 16.09344 0 0
1:35 am 01:35 Clear 25 -4 21 -6 86 86 Calm 30.18 1022 10 16.09344 0 0
1:55 am 01:55 Clear 25 -4 23 -5 93 93 Calm 30.18 1022 10 16.09344 0 0
2:15 am 02:15 Clear 27 -3 23 -5 86 86 Calm 30.18 1022 10 16.09344 0 0
2:35 am 02:35 Clear 25 -4 23 -5 93 93 Calm 30.18 1022 10 16.09344 0 0
2:55 am 02:55 Mostly Cloudy 23 -5 23 -5 100 100 Calm 30.15 1021 10 16.09344 0 0
3:15 am 03:15 Cloudy 25 -4 25 -4 100 100 Calm 30.15 1021 10 16.09344 0 0
3:35 am 03:35 Cloudy 28 -2 25 -4 86 86 Calm 30.15 1021 10 16.09344 0 0
3:55 am 03:55 Cloudy 27 -3 25 -4 93 93 Calm 30.15 1021 10 16.09344 0 0
4:15 am 04:15 Cloudy 27 -3 25 -4 93 93 Calm 30.15 1021 10 16.09344 0 0
4:35 am 04:35 Cloudy 28 -2 25 -4 86 86 Calm 30.12 1020 10 16.09344 0 0
4:55 am 04:55 Cloudy 28 -2 23 -5 80 80 Calm 30.12 1020 10 16.09344 0 0
5:15 am 05:15 Cloudy 28 -2 23 -5 80 80 Calm 30.12 1020 10 16.09344 0 0
5:35 am 05:35 Cloudy 30 -1 23 -5 75 75 Calm 30.12 1020 10 16.09344 0 0
5:55 am 05:55 Cloudy 28 -2 25 -4 86 86 S 6 9 30.12 1020 10 16.09344 0 0
6:15 am 06:15 Partly Cloudy 28 -2 23 -5 80 80 Calm 30.12 1020 10 16.09344 0 0
6:35 am 06:35 Clear 28 -2 25 -4 86 86 Calm 30.12 1020 10 16.09344 0 0
6:55 am 06:55 Clear 27 -3 23 -5 86 86 SSW 3 6 30.09 1019 10 16.09344 0 0
7:15 am 07:15 Clear 27 -3 23 -5 86 86 SSW 6 9 30.09 1019 10 16.09344 0 0
7:35 am 07:35 Sunny 28 -2 23 -5 80 80 S 5 7 30.09 1019 10 16.09344 0 0
7:55 am 07:55 Sunny 28 -2 23 -5 80 80 S 7 11 30.09 1019 10 16.09344 0 0
8:15 am 08:15 Sunny 30 -1 23 -5 75 75 WNW 3 6 30.09 1019 10 16.09344 0 0
8:35 am 08:35 Sunny 30 -1 23 -5 75 75 S 10 17 30.09 1019 10 16.09344 0 0
8:55 am 08:55 Sunny 32 0 25 -4 75 75 SSW 7 11 30.09 1019 10 16.09344 0 0
9:15 am 09:15 Mostly Cloudy 34 1 25 -4 70 70 SSW 6 9 30.06 1018 10 16.09344 0 0
9:35 am 09:35 Cloudy 36 2 27 -3 70 70 WSW 5 7 30.06 1018 10 16.09344 0 0
9:55 am 09:55 Cloudy 36 2 27 -3 70 70 WSW 3 6 30.06 1018 10 16.09344 0 0
10:15 am 10:15 Cloudy 36 2 27 -3 70 70 SSW 5 7 30.06 1018 10 16.09344 0 0
10:35 am 10:35 Cloudy 37 3 28 -2 70 70 Calm 30.06 1018 10 16.09344 0 0
10:55 am 10:55 Cloudy 37 3 28 -2 70 70 Calm 30.06 1018 10 16.09344 0 0
11:15 am 11:15 Cloudy 41 5 27 -3 57 57 SSW 6 9 30.06 1018 10 16.09344 0 0
11:35 am 11:35 Cloudy 41 5 27 -3 57 57 SSW 6 9 30.06 1018 10 16.09344 0 0
11:55 am 11:55 Cloudy 43 6 27 -3 53 53 SSW 7 11 30.06 1018 10 16.09344 0 0
12:15 pm 12:15 Mostly Cloudy 43 6 28 -2 57 57 SSW 7 11 30.03 1017 10 16.09344 0 0
12:35 pm 12:35 Mostly Cloudy 43 6 28 -2 57 57 SW 6 9 30.03 1017 10 16.09344 0 0
12:55 pm 12:55 Partly Cloudy 45 7 28 -2 53 53 WSW 7 11 30 1016 10 16.09344 0 0
1:15 pm 13:15 Sunny 45 7 30 -1 57 57 SSW 8 13 30 1016 10 16.09344 0 0
1:35 pm 13:35 Sunny 46 8 30 -1 53 53 SSW 6 9 30 1016 10 16.09344 0 0
1:55 pm 13:55 Sunny 46 8 30 -1 53 53 S 8 13 30 1016 10 16.09344 0 0
2:15 pm 14:15 Mostly Cloudy 48 9 30 -1 50 50 S 8 13 29.94 1014 10 16.09344 0 0
2:35 pm 14:35 Cloudy 46 8 30 -1 53 53 S 6 9 29.97 1015 10 16.09344 0 0
2:55 pm 14:55 Cloudy 46 8 30 -1 53 53 S 5 7 29.97 1015 10 16.09344 0 0
3:15 pm 15:15 Cloudy 46 8 32 0 57 57 SSW 3 6 29.97 1015 10 16.09344 0 0
3:35 pm 15:35 Cloudy 46 8 32 0 57 57 Calm 29.97 1015 10 16.09344 0 0
3:55 pm 15:55 Cloudy 46 8 32 0 57 57 Calm 29.97 1015 10 16.09344 0 0
4:15 pm 16:15 Cloudy 46 8 32 0 57 57 Calm 30 1016 10 16.09344 0 0
4:35 pm 16:35 Cloudy 46 8 32 0 57 57 Calm 30 1016 10 16.09344 0 0
4:55 pm 16:55 Cloudy 45 7 32 0 61 61 W 3 6 30 1016 10 16.09344 0 0
5:15 pm 17:15 Cloudy 43 6 32 0 66 66 W 7 11 30 1016 10 16.09344 0 0
5:35 pm 17:35 Partly Cloudy 43 6 32 0 66 66 W 6 9 30 1016 10 16.09344 0 0
5:55 pm 17:55 Partly Cloudy 45 7 32 0 61 61 W 12 19 30 1016 10 16.09344 0 0
6:15 pm 18:15 Partly Cloudy 45 7 32 0 61 61 WNW 12 19 30 1016 10 16.09344 0 0
6:35 pm 18:35 Clear 45 7 32 0 61 61 WNW 7 11 30 1016 10 16.09344 0 0
6:55 pm 18:55 Clear 43 6 32 0 66 66 Calm 30.03 1017 10 16.09344 0 0
7:15 pm 19:15 Clear 43 6 32 0 66 66 E 3 6 30.03 1017 10 16.09344 0 0
7:35 pm 19:35 Clear 43 6 32 0 66 66 Calm 30.03 1017 10 16.09344 0 0
7:55 pm 19:55 Clear 37 3 32 0 81 81 NW 5 7 30.03 1017 10 16.09344 0 0
8:15 pm 20:15 Clear 41 5 32 0 70 70 NNW 6 9 30.03 1017 10 16.09344 0 0
8:35 pm 20:35 Clear 37 3 32 0 81 81 NNW 7 11 30.03 1017 10 16.09344 0 0
8:55 pm 20:55 Clear 39 4 30 -1 70 70 NNW 9 15 30.03 1017 10 16.09344 0 0
9:15 pm 21:15 Clear 37 3 28 -2 70 70 NNW 8 13 30.06 1018 10 16.09344 0 0
9:35 pm 21:35 Clear 37 3 28 -2 70 70 NNW 8 13 30.06 1018 10 16.09344 0 0
9:55 pm 21:55 Clear 37 3 27 -3 65 65 NNW 9 15 30.06 1018 10 16.09344 0 0
10:15 pm 22:15 Clear 37 3 27 -3 65 65 NNW 9 15 30.06 1018 10 16.09344 0 0
10:35 pm 22:35 Clear 37 3 25 -4 60 60 NNW 9 15 30.06 1018 10 16.09344 0 0
10:55 pm 22:55 Clear 37 3 23 -5 56 56 N 8 13 30.06 1018 10 16.09344 0 0
11:15 pm 23:15 Clear 37 3 21 -6 52 52 N 9 15 30.09 1019 10 16.09344 0 0
11:35 pm 23:35 Clear 36 2 19 -7 52 52 NNE 3 6 30.09 1019 10 16.09344 0 0
11:55 pm 23:55 Clear 36 2 19 -7 52 52 NNE 7 11 30.09 1019 10 16.09344 0 0

Powered by AerisWeather